Flag for Norway Weather past 2 weeks in Kolbotn, Norway

41 °F

Passing clouds.

Feels Like: 30 °F
Forecast: 24 / 38 °F
Wind: 28 mph from West

Location: Oslo / Fornebu

Current Time: Nov 29, 2015 at 7:58:45 AM

Latest Report: Nov 29, 2015 at 6:50 AM

Visibility: N/A

Pressure: 28.77 "Hg

Humidity: 70%

Dew point: 32 °F

Location of KolbotnLocation

Historic Weather in Kolbotn — Graph


Kolbotn temperature yesterday

Maximum temperature yesterday: 43 °F (at 3:50 AM)
Minimum temperature yesterday: 37 °F (at 4:20 PM)
Average temperature yesterday: 41 °F

Past Weeks' High & Low Weather Summary

High52 °F (Nov 15, 11:20 PM)100% (Nov 16, 7:50 AM)30.01 "Hg (Nov 16, 7:50 AM)
Low32 °F (Nov 21, 2:20 AM)42% (Nov 27, 9:50 PM)28.74 "Hg (Nov 17, 7:50 AM)
Average44 °F75%29.37 "Hg
* Reported Nov 14 5:50 AM — Nov 29 5:50 AM, Kolbotn, Weather by CustomWeather, © 2015

Note: Actual official high and low records may vary slightly from our data, if they occured in-between our weather recording intervals... More about our weather records


Kolbotn weather history for previous 24 hours

Time TempWeatherWind HumidityBarometerVisibility
5:50 AM
Sun, Nov 29
41 °FSprinkles. Passing clouds.23 mph76%28.77 "HgN/A
5:20 AM41 °FPassing clouds.20 mph70%28.77 "HgN/A
4:50 AM41 °FPartly cloudy.35 mph76%28.77 "HgN/A
4:20 AM41 °FPassing clouds.22 mph76%28.77 "HgN/A
3:50 AM39 °FPartly cloudy.21 mph75%28.77 "HgN/A
3:20 AM39 °FRain. Fog.40 mph81%28.80 "Hg3 mi
2:50 AM43 °FPassing clouds.31 mph71%28.77 "HgN/A
2:20 AM43 °FPassing clouds.35 mph71%28.77 "HgN/A
1:50 AM43 °FPassing clouds.35 mph81%28.77 "HgN/A
12:20 AM41 °FPassing clouds.39 mph81%28.74 "HgN/A
11:50 PM
Sat, Nov 28
43 °FSprinkles. Passing clouds.38 mph76%28.77 "HgN/A
10:50 PM43 °FPassing clouds.30 mph76%28.77 "HgN/A
10:20 PM43 °FPartly cloudy.33 mph76%28.77 "HgN/A
9:20 PM43 °FPassing clouds.32 mph81%28.77 "HgN/A
8:50 PM43 °FPassing clouds.30 mph81%28.80 "HgN/A
8:20 PM41 °FSprinkles. Passing clouds.24 mph87%28.80 "HgN/A
7:50 PM41 °FLight rain. Passing clouds.21 mph87%28.82 "HgN/A
7:20 PM39 °FSprinkles. Passing clouds.13 mph93%28.85 "HgN/A
6:50 PM39 °FSprinkles. Passing clouds.12 mph93%28.85 "Hg5 mi
6:20 PM39 °FRain. Mostly cloudy.6 mph93%28.88 "Hg2 mi
5:50 PM39 °FRain showers. Mostly cloudy.6 mph87%28.91 "Hg4 mi
5:20 PM39 °FSprinkles. Passing clouds.7 mph87%28.94 "Hg4 mi
4:50 PM39 °FLight rain. Passing clouds.13 mph87%28.97 "HgN/A
4:20 PM37 °FSprinkles. Mostly cloudy.28 mph93%29.00 "HgN/A
3:50 PM39 °FSprinkles. Fog.30 mph81%29.00 "Hg2 mi
3:20 PM41 °FSprinkles. Partly sunny.26 mph76%29.03 "HgN/A
2:50 PM41 °FPartly sunny.33 mph70%29.03 "HgN/A
2:20 PM41 °FBroken clouds.38 mph76%29.03 "HgN/A
1:50 PM43 °FPartly sunny.37 mph76%29.03 "HgN/A
1:20 PM41 °FSprinkles. Partly sunny.33 mph76%29.06 "HgN/A
12:50 PM43 °FPartly sunny.33 mph61%29.06 "HgN/A
12:20 PM41 °FLight rain. Partly sunny.26 mph76%29.09 "HgN/A
11:50 AM43 °FScattered clouds.35 mph61%29.09 "HgN/A
11:20 AM41 °FScattered clouds.37 mph66%29.09 "HgN/A
10:50 AM43 °FPartly sunny.36 mph66%29.09 "HgN/A
10:20 AM41 °FScattered clouds.33 mph66%29.09 "HgN/A
9:50 AM41 °FPartly sunny.33 mph70%29.09 "HgN/A
9:20 AM41 °FPassing clouds.28 mph76%29.09 "HgN/A
8:50 AM41 °FBroken clouds.35 mph70%29.09 "HgN/A
8:20 AM41 °FPassing clouds.37 mph70%29.09 "HgN/A
7:50 AM41 °FPassing clouds.31 mph76%29.09 "HgN/A
7:20 AM41 °FPassing clouds.29 mph70%29.09 "HgN/A
Weather by CustomWeather, © 2015

See weather overviewHow to use our weather pages